Regional Weather Roundup
Issued by NWS Wakefield, VA

Home | Current Version | Previous Version | Text Only | Print | Product List | Glossary Off
Versions: 1 2 3 4 5 6 7 8 9 10 11 12 13 14 15 16 17 18 19 20 21 22 23 24 25 26 27 28

000
ASUS41 KAKQ 270415
RWRAKQ

REGIONAL WEATHER ROUNDUP
NATIONAL WEATHER SERVICE WAKEFIELD VA
1200 AM EDT WED JUL 27 2016

Note: "fair" indicates few or no clouds below 12,000 feet with no
significant weather and/or obstructions to visibility. * = Denotes
station may not report precipitation (e.g., rain,snow,etc.),
thunder or fog.

VAZ042-051-052>054-056-270500-
NORTHERN VIRGINIA

CITY           SKY/WX    TMP DP  RH WIND       PRES   REMARKS
WASH NATIONAL  CLOUDY    85  72  65 SW6       29.93F
DULLES         MOCLDY    81  73  76 SW7       29.95S
FORT BELVOIR   FAIR      82  72  72 NW2       29.94R
QUANTICO       FAIR      81  75  82 W5        29.95R
FREDERICKSBRG* FAIR      77  77 100 SW6       29.97R
STAFFORD*      FAIR      77  73  85 SW5       30.00R
WARRENTON      FAIR      76  69  80 SW7       29.98R
CULPEPER*      FAIR      76  74  92 SW5       29.99R
MANASSAS*      MOCLDY    79  75  89 CALM      29.96R
LEESBURG*      FAIR      81  77  89 SW5       29.97R
WINCHESTER     FAIR      79  70  73 CALM      29.99R
FRONT ROYAL*   FAIR      77  72  83 S7        29.99R
LURAY*         FAIR      73  73 100 CALM      30.01R
$$

VAZ048-049-060>072-079>083-270500-
CENTRAL AND SOUTH CENTRAL VIRGINIA

CITY           SKY/WX    TMP DP  RH WIND       PRES   REMARKS
RICHMOND       LGT RAIN  75  72  90 CALM      29.95F
CHESTERFIELD*  MOCLDY    75  61  60 CALM      29.96F
PETERSBURG*    LGT RAIN  77  77  99 CALM      29.97F
HANOVER        LGT RAIN  74  69  85 S3        29.96F
TAPPAHANNOCK*  LGT RAIN  78  78 100 SW6       29.97S
QUINTON*       FAIR      77  75  95 W3        29.96F
CHARLOTTSVILLE FAIR      78  72  81 CALM      30.01R
GORDONSVILLE*  FAIR      75  72  88 CALM      29.98F
ORANGE*          N/A     73  73 100 CALM      30.01S
LOUISA*        FAIR      75  73  94 CALM      29.97F
BUMPASS*       FAIR      72  72  98 CALM      29.97F
FARMVILLE*     TSTM     N/A N/A N/A CALM      29.99F
CREWE*         FAIR      75  75 100 CALM      30.00S
FORT PICKETT*  CLOUDY    74  74  98 N5        30.00F
CHASE CITY*    CLOUDY    76  74  95 NW8       30.03R
CLARKSVILLE*   MOCLDY    79  73  83 NW10      30.00R
SOUTH HILL*    MOCLDY    74  73  98 N6        30.05R
LAWRENCEVILLE* CLOUDY    75  74  97 N3        29.99R
EMPORIA*       FAIR      73  73 100 N3        29.99S
$$

VAZ088>098-270500-
SOUTHEAST VIRGINIA

CITY           SKY/WX    TMP DP  RH WIND       PRES   REMARKS
NORFOLK        FAIR      82  73  74 CALM      29.95R
VIRGINIA BEACH CLOUDY    84  73  69 W5        29.95R
NORFOLK NAVAL  MOCLDY    82  73  74 CALM      29.96S
WEST POINT*    MOCLDY    81  78  91 W8        29.97S
SALUDA*        FAIR      80  80  99 CALM      29.95R
NEWPORT NEWS   FAIR      81  75  82 SW3       29.96R
LANGLEY AFB    FAIR      80  74  82 W2        29.95S
FORT EUSTIS    FAIR      79  75  90 CALM      29.94S
WILLIAMSBURG*  FAIR      82  75  78 W5        29.97S
HR EXEC AP*    FAIR      75  72  88 CALM      29.98S
FRANKLIN*      MOCLDY    75  73  94 CALM      29.97S
US460-WAKEFLD  FAIR      77  73  87 W5        29.98R
$$

VAZ020-022-025-037-045-270500-
WEST CENTRAL AND SOUTHWEST VIRGINIA

CITY           SKY/WX    TMP DP  RH WIND       PRES   REMARKS
STAUNTON*      CLOUDY    72  72  99 W3        30.05S FOG
WAYNESBORO*    FAIR      73  71  93 S3        30.05R
HOT SPRINGS VA NOT AVBL
LYNCHBURG      FAIR      71  71 100 SW5       30.04S
DANVILLE       MOCLDY    78  70  76 NE15      30.02R
SOUTH BOSTON*  CLOUDY    73  72  95 N7        30.02S
MARTINSVILLE   MOCLDY    78  71  79 NE5       30.05R
ROANOKE        FAIR      78  73  84 NE5       30.06R
BLACKSBURG     FAIR      76  71  83 CALM      30.13R
DUBLIN*        FAIR      77  72  84 CALM      30.11R
MARION*        FAIR      74  71  89 CALM      30.15R
HILLSVILLE*    MOCLDY    73  72  96 SW3       30.12R
RICHLANDS*     FAIR      76  73  87 CALM      30.12F
WISE*          FAIR      73  64  73 CALM      30.14F
ABINGDON*      FAIR      77  70  81 CALM      30.10S
$$

MDZ021>025-VAZ099-100-270500-
SOUTHERN MARYLAND AND THE DELMARVA PENINSULA

CITY           SKY/WX    TMP DP  RH WIND       PRES   REMARKS
PATUXENT RIVER CLOUDY    82  76  81 SW8       29.93S
BAY BRIDGE APT CLOUDY    82  77  83 S3        29.92S
LEONARDTOWN      N/A    N/A N/A N/A MISG        N/A
DOVER          NOT AVBL
GEORGETOWN     PTCLDY    78  73  84 CALM      29.94S
EASTON         CLOUDY    82  80  94 CALM      29.96S
CAMBRIDGE      PTCLDY    77  77 100 CALM      29.92F
SALISBURY      PTCLDY    76  74  93 CALM      29.93F
OCEAN CITY     CLOUDY    76  74  93 CALM      29.94S
WALLOPS ISLAND FAIR      81  77  88 SW7       29.94R
ACCOMACK*      FAIR      81  75  83 CALM      29.95R
$$

NCZ012>017-030>032-270500-
NORTH CENTRAL AND EASTERN NORTH CAROLINA

CITY           SKY/WX    TMP DP  RH WIND       PRES   REMARKS
ROANOKE RAPIDS FAIR      75  73  94 N6        29.98R
RALEIGH        CLOUDY    77  75  93 CALM      29.98F
ELIZABETH CITY CLOUDY    77  75  93 S3        29.96S
AHOSKIE*       MOCLDY    75  74  98 CALM      29.96F FOG
EDENTON*       CLOUDY   N/A N/A N/A CALM      29.97S
CURRITUCK*     CLOUDY    78  78  99 CALM      29.97S
KILL DEVIL HLS CLOUDY    80  76  89 SW5       29.95R
MANTEO           N/A     79  79 100 CALM      29.97R
CAPE HATTERAS  CLOUDY    83  77  82 W12       29.98R
TARBORO*       FAIR      79  77  94 CALM      29.98S
GOLDSBORO      MOCLDY    83  79  87 SW5       29.97R HX  95
WASHINGTON     CLOUDY    82  75  78 SW7       29.97S
GREENVILLE     CLOUDY    82  79  89 W6        30.00R
NEW BERN       CLEAR     79  74  84 SW6       30.00R
WILMINGTON     CLEAR     81  76  84 SW7       30.01R
$$

VAZ048-270500-
ELSEWHERE

CITY           SKY/WX    TMP DP  RH WIND       PRES   REMARKS
HARRISBURG PA  MOCLDY    80  75  84 CALM      29.92R
BALTIMORE      MOCLDY    80  71  74 W3        29.92F
ANNAPOLIS      CLOUDY    83  77  82 CALM      29.91F
ANDREWS AFB    FAIR      80  72  76 S3        29.93S
PHILADELPHIA   CLOUDY    82  73  74 S3        29.92S
GREENSBORO     MOCLDY    82  75  79 SW3       30.01R
ROCKY MOUNT    CLOUDY    81  78  91 CALM      29.98R
$$

VAZ100-270500-
MARINE

STATION/POSITION TIME  TEMP    WIND        PRES    WAVE   SWELL
                       AIR SEA DIR/SP/G            HT/PER HT/PER
                 (UTC) (F)     (DEG/KT/KT) (MB)    (FT/S) (FT/S)
BRANDYWINE LGT   0300          220/ 10/ 11   N/A
CAPE MAY NJ      0300      74  170/  3/  4   N/A
LEWES DE         0300      74  220/  5/  8   N/A
OCEAN-CITY-INLET 0300      78  220/  5/  6   N/A
WACHAPREAGUE VA  0300      89  150/  1/  2   N/A
THOMAS POINT MD  0400   86 83  210/  9/  9 1014.5F
GOOSES REEF MD   0400   85 86  240/ 10/ 10 1014.3F   1
COVE POINT MD    0300          270/  7/ 11   N/A
SOLOMONS ISLAND  0300      86  240/  5/  6   N/A
BISHOPS HEAD MD  0300          200/ 10/ 12   N/A
PINEY POINT MD   0300          240/  7/ 10   N/A
POTOMAC MD       0400   84 86  240/ 12/ 14 1012.6S   1
CAMBRIDGE MD     0300      88  200/  2/  4   N/A
LEWISETTA VA     0300      88  240/  4/  5   N/A
RAPPAHANNOCK LGT 0300          200/  5/  5   N/A
STINGRAY PT      0400   85 86  160/  6/  8 1014.6R   0
YORK RVR RNG VA  0300          230/  7/  8   N/A
YORKTOWN VA      0300      85  310/  2/  3   N/A
JAMESTOWN VA     0400   81 89  280/  6/ 10   N/A     0
DOMINION TERM VA 0300          240/  5/  5   N/A
KIPTOPEKE VA     0300      82  220/  5/  6   N/A
CHES BAY BRIDGE  0300      80  200/  7/  8   N/A
CAPE HENRY VA    0300          210/  3/  3   N/A
WILLOUBY STN VA  0300          280/  3/  4   N/A
CAPE HENRY BUOY  0312      76                N/A     2/ 6
1ST LANDING BUOY 0400   81 80  260/  4/  6 1014.0R
CAPE CHARLES BUO 0326      77                N/A     2/ 5
OFFSHORE WE BUOY 0321      83                N/A     2/ 6
64NM E OF VA BCH 0350   81 80  230/  2/  4 1013.9R   3/ 6   3/ 6
DUCK PIER NC     0300      66  200/  5/  6   N/A
44100 DUCK FRF   0305      78                N/A     2/ 6
44056 DUCK FRF   0311      70                N/A     1/ 6
OREGON INLET NC  0300      86  190/  5/  5   N/A
HATTERAS NC      0300      83  230/ 12/ 18   N/A
DIAMOND SHLS NC  0350   84 84  240/ 19/ 21 1015.0R   5/ 5
CAPE LOOKOUT NC  0300   83     220/ 12/ 15 1015.1R
$$




USA.gov is the U.S. government's official web portal to all federal, state and local government web resources and services.